Location: Pulvis Stellarum Observatory
(41.6962°N, 71.4263°W)
Time: 02:09:52
(UTC-04:00)

Daily predictions for brighter satellites

Satellite Brightness Start Highest point End
(mag) Time Altitude Azimuth Time Altitude Azimuth Time Altitude Azimuth
NOSS 2-2 (E) 3.8 00:06:22 53° ENE 00:06:22 53° ENE 00:09:54 10° NE
Cosmos 1408 Rocket 3.6 00:07:47 66° ENE 00:07:47 66° ENE 00:12:02 10° NNE
ATLAS 5 CENTAUR R/B 2.0 00:10:13 54° E 00:10:13 54° E 00:14:22 10° NE
Lacrosse 5 3.8 00:06:15 10° W 00:10:37 28° NNW 00:15:00 10° NNE
Cosmos 2184 Rocket 4.1 00:04:33 10° N 00:10:53 65° E 00:12:30 49° SE
Cosmos 1833 Rocket 2.8 00:05:32 10° NNW 00:11:09 69° ENE 00:12:20 53° ESE
Meteor 1-11 4.2 00:10:19 59° SSW 00:11:30 87° W 00:17:20 10° N
CZ-4 R/B 4.2 00:12:40 10° N 00:17:24 56° WNW 00:18:12 49° WSW
Okean 3 Rocket 4.4 00:18:47 40° W 00:19:11 41° WNW 00:23:21 10° N
H-2A R/B 2.2 00:20:41 59° NE 00:20:41 59° NE 00:24:31 10° N
CENTAUR R/B 3.4 00:15:55 10° NNW 00:23:50 65° NE 00:28:57 27° SE
Cosmos 1151 Rocket 3.6 00:19:55 10° N 00:23:55 46° ENE 00:23:55 46° ENE
Cosmos 2228 Rocket 3.7 00:19:45 10° N 00:24:04 45° ENE 00:24:07 45° E
Cosmos 1461 3.5 00:23:30 54° W 00:24:12 62° NW 00:28:57 10° NNE
USA 234 3.1 00:20:07 10° NE 00:26:41 74° SE 00:28:51 45° SSW
SL-27 R/B 3.4 00:24:54 10° NNW 00:27:39 48° N 00:27:39 48° N
ADEOS Rocket 3.0 00:27:51 10° N 00:33:40 78° WNW 00:35:20 51° SSW
Cosmos 1455 3.1 00:30:21 10° NNW 00:33:14 43° NW 00:33:14 43° NW
Meteor 2-21 4.4 00:27:59 10° N 00:34:02 73° E 00:35:21 55° SE
NOSS 2-2 (D) 3.6 00:35:18 66° NNW 00:35:18 66° NNW 00:39:22 10° NNE
deb Chang Zheng 4 4.0 00:31:51 10° NNE 00:35:49 54° E 00:35:49 54° E
Cosmos 1626 4.4 00:38:47 17° WNW 00:39:00 17° WNW 00:41:31 10° NNW
Cosmos 1943 Rocket 4.2 00:42:08 14° ESE 00:42:29 14° E 00:45:12 10° ENE
Mayak -0.2 00:45:04 10° N 00:48:54 36° WNW 00:49:06 35° WNW
RESURS DK-1 2.6 00:54:01 64° NNW 00:54:01 64° NNW 00:57:49 10° NNE
Cosmos 2278 Rocket 3.8 00:50:16 16° WSW 00:53:41 29° NW 00:58:34 10° N
Cosmos 1743 Rocket 3.6 00:57:30 69° WNW 00:57:30 69° WNW 01:01:42 10° N
Cosmos 1328 Rocket 4.3 00:56:20 10° NNW 01:00:05 43° WNW 01:00:05 43° WNW
ATLAS 3B R/B 3.9 00:55:38 10° WNW 01:00:37 23° WSW 01:00:49 23° WSW
NOSS 2-2 (C) 4.4 01:00:23 37° WNW 01:00:58 39° NW 01:05:08 10° NNE
Cosmos 1441 Rocket 4.4 00:58:38 10° NNW 01:01:20 35° WNW 01:01:20 35° WNW
Nadezhda 1 Rocket 4.1 01:01:26 50° SW 01:03:04 68° W 01:09:29 10° N
Cosmos 2151 3.6 01:03:28 47° WNW 01:03:28 47° WNW 01:07:27 10° N
Cosmos 1869 3.7 01:01:19 10° N 01:04:42 61° NNW 01:04:42 61° NNW
Cosmos 1805 Rocket 4.4 01:07:05 39° E 01:07:05 39° E 01:11:06 10° NNE
Cosmos 405 Rocket 3.8 01:03:42 10° NNW 01:06:14 36° NW 01:06:14 36° NW
Cosmos 371 Rocket 3.4 01:09:05 10° NNW 01:13:56 68° ENE 01:14:32 60° ESE
Meteor 2-16 Rocket 4.4 01:07:50 10° N 01:14:00 83° W 01:15:23 57° S
ALOS 2 4.4 01:16:07 21° W 01:16:07 21° W 01:18:57 10° NW
Sich 1 4.0 01:20:36 37° E 01:20:42 37° E 01:24:45 10° NNE
COSMOS 2487 3.6 01:18:21 10° N 01:21:15 42° NE 01:21:15 42° NE
Cosmos 1500 Rocket 4.2 01:24:31 43° WNW 01:24:31 43° WNW 01:28:38 10° N
Cosmos 2369 Rocket 2.6 01:26:05 43° SE 01:26:56 47° ESE 01:32:20 10° NE
CZ-4B R/B 3.5 01:30:42 20° ENE 01:30:42 20° ENE 01:33:01 10° NNE
Cosmos 1707 Rocket 4.1 01:26:30 10° N 01:30:48 49° ENE 01:31:17 47° E
Cosmos 676 Rocket 3.8 01:30:15 67° SW 01:30:57 82° WNW 01:36:10 10° NNE
Cosmos 1954 Rocket 3.8 01:32:05 69° SSW 01:32:44 89° ESE 01:37:56 10° NNE
PSLV R/B 3.7 01:28:31 10° NNE 01:33:15 78° ESE 01:33:38 72° SSE
CZ-4C R/B 3.7 01:36:01 53° NE 01:36:01 53° NE 01:39:17 10° N
Cosmos 1140 Rocket 3.3 01:35:37 67° SW 01:36:18 83° WNW 01:41:28 10° NNE
Cosmos 1633 Rocket 3.8 01:36:12 40° ESE 01:36:34 41° E 01:40:44 10° NNE
Resurs 1-4 Rocket 4.1 01:36:23 10° NE 01:40:02 18° E 01:42:12 15° ESE
Cosmos 332 Rocket 3.8 01:36:01 10° NNW 01:40:54 64° WSW 01:41:04 64° WSW
Cosmos 2082 Rocket 3.5 01:36:25 10° NW 01:40:50 25° W 01:40:50 25° W
Cosmos 407 Rocket 4.3 01:40:18 34° W 01:41:32 40° WNW 01:46:23 10° N
Cosmos 1900 4.3 01:48:48 63° WSW 01:49:31 78° WNW 01:54:28 10° NNE
Cosmos 1933 3.3 01:45:49 10° N 01:49:48 77° ENE 01:49:48 77° ENE
MOS 1 Rocket 3.7 01:46:41 10° N 01:51:38 55° WNW 01:52:24 49° WSW
Cosmos 614 Rocket 4.3 01:51:03 48° WSW 01:52:05 57° WNW 01:57:10 10° NNE
Cosmos 1833 Rocket 4.5 01:51:05 10° WNW 01:54:01 16° W 01:54:01 16° W
ATLAS 5 CENTAUR R/B 3.9 01:51:43 12° W 01:54:43 21° NW 01:58:34 10° NNE
OceanSat 1 rocket 4.5 01:50:09 10° NNE 01:54:58 90° NW 01:55:40 66° SSW
Cosmos 1666 Rocket 3.3 01:57:16 78° S 01:57:33 87° E 02:01:55 10° N
Cosmos 2263 4.3 01:57:10 47° SSE 01:58:30 61° ESE 02:04:01 10° NNE
H-2A R/B 4.4 01:57:34 10° NE 02:00:23 18° E 02:01:20 17° ESE
In-Cosmos 22 Rocket 4.4 02:01:15 45° WSW 02:02:22 53° WNW 02:07:37 10° N
Cosmos 2181 Rocket 4.3 02:02:48 40° SW 02:04:48 54° WNW 02:10:58 10° N
Meteor 1-26 Rocket 4.3 01:59:37 10° N 02:05:23 74° E 02:07:39 38° SSE
Cosmos 1825 3.1 02:07:15 38° ESE 02:07:35 38° E 02:11:07 10° NNE
GP-B 4.0 02:04:25 10° NNE 02:08:39 42° E 02:09:59 33° SE
Landsat 5 3.1 02:09:18 86° WSW 02:09:18 86° WSW 02:13:09 10° NNW
USA 234 4.4 02:03:23 10° NE 02:09:24 40° NNW 02:15:25 10° W
Cosmos 2242 Rocket 4.2 02:08:11 10° N 02:12:36 52° E 02:14:06 35° SE
Cosmos 1850 Rocket 3.9 02:12:07 53° SSW 02:13:23 89° WNW 02:18:38 10° NNE
CENTAUR R/B 3.8 02:07:13 10° NW 02:14:19 34° WSW 02:16:04 31° SW
Cosmos 1782 4.3 02:12:02 10° NNE 02:15:37 31° ENE 02:17:20 22° ESE
Spot 2 3.9 02:15:47 10° NNE 02:20:15 85° WNW 02:20:57 62° SSW
Cosmos 1943 Rocket 2.1 02:23:39 44° SW 02:25:27 77° WNW 02:31:03 10° NNE
Cosmos 1892 3.8 02:25:36 31° WNW 02:25:36 31° WNW 02:28:57 10° NNW
CRYOSAT 2 4.3 02:24:21 50° SSW 02:25:34 73° W 02:30:29 10° N
NPP 3.8 02:20:17 10° NNE 02:25:40 65° ESE 02:27:47 36° S
Cosmos 2218 Rocket 4.2 02:21:51 10° NNW 02:27:47 52° W 02:29:50 37° SW
BREEZE-M DEB (TANK) 4.2 02:16:56 10° W 02:27:55 64° NNW 02:31:38 10° ENE
CBERS-1 4.3 02:23:34 10° NNE 02:28:40 61° ESE 02:30:40 36° SSE
ARIANE 5 R/B 3.9 02:26:29 10° NE 02:30:48 29° E 02:33:39 17° SE
Cosmos 1408 2.4 02:32:31 73° SW 02:32:48 80° W 02:36:33 10° N
BREEZE-M DEB (TANK) 3.2 02:34:08 28° SW 02:37:41 83° SSE 02:40:30 10° ENE
CZ-2D R/B 2.3 02:35:51 10° NNE 02:41:07 64° ESE 02:43:41 30° S
BREEZE-M DEB (TANK) 3.5 02:41:08 10° NW 02:43:14 36° NNE 02:46:41 10° E
Cosmos 405 3.1 02:43:43 53° W 02:43:54 54° WNW 02:47:23 10° N
Meteor 2-3 Rocket 4.0 02:41:43 36° SW 02:43:55 58° WNW 02:49:39 10° N
Lacrosse 4 Rocket 2.6 02:43:02 27° SSE 02:44:30 35° ESE 02:48:32 10° NE
Cosmos 1763 Rocket 3.9 02:40:59 10° NNW 02:46:00 58° ENE 02:50:58 10° SSE
UNK 3.7 02:44:29 30° SSE 02:46:47 86° ENE 02:51:29 10° NNW
SL-24 DEB 4.5 02:44:54 27° SSE 02:47:23 67° E 02:51:59 10° N
SL-16 R/B 2.5 02:43:58 21° SSE 02:48:15 88° WSW 02:54:28 10° NNW
Cosmos 304 Rocket 4.3 02:45:07 10° NW 02:49:33 38° WSW 02:50:15 36° WSW
Cosmos 1689 Rocket 3.7 02:52:15 25° WNW 02:52:15 25° WNW 02:54:08 10° NW
PSLV R/B 3.4 02:53:10 51° ESE 02:53:10 51° ESE 02:55:35 10° E
IRS-P3 4.1 02:48:41 10° NNE 02:54:01 80° WNW 02:56:33 32° SSW
ADEOS II 4.2 02:51:57 10° NE 02:55:49 20° E 02:59:39 10° SE
Cosmos 1814 Rocket 4.4 02:50:42 10° NNW 02:56:00 66° ENE 03:01:12 10° SSE
Cosmos 1862 Rocket 3.8 02:52:28 10° NNW 02:56:51 53° W 02:58:11 38° SW
Cosmos 1818 3.9 02:51:52 10° NNW 02:57:21 68° NE 03:02:46 10° SE
Cosmos 1703 Rocket 4.1 02:53:03 10° N 02:57:24 55° E 03:00:38 17° SSE
BREEZE M DEB (TANK) 4.2 02:53:29 10° W 02:59:08 28° NNW 03:01:39 10° NE
Cosmos 2208 Rocket 4.2 02:55:08 10° NNW 03:00:23 55° WSW 03:03:00 28° SSW
Spot 4 Rocket 4.4 02:56:23 10° NNE 03:01:28 58° E 03:04:43 22° S
CZ-4B R/B 3.4 03:04:07 15° WNW 03:04:07 15° WNW 03:05:16 10° NW
Cosmos 1535 Rocket 4.5 03:03:28 10° N 03:09:36 84° E 03:15:05 13° S
Cosmos 2369 Rocket 3.6 03:07:51 16° W 03:11:09 27° NW 03:15:57 10° N
Nadezhda 3 Rocket 4.2 03:08:04 26° SSW 03:11:36 57° W 03:17:52 10° N
SL-08 R/B 3.5 03:10:20 28° SSW 03:12:36 54° W 03:17:15 10° NNW
IRS-1D 3.5 03:08:05 10° NNE 03:13:16 82° WNW 03:16:11 26° SSW
Cosmos 841 Rocket 3.7 03:08:20 10° NNW 03:13:35 72° ENE 03:18:44 10° SSE
Meteor 1-4 Rocket 4.1 03:13:43 14° SSE 03:16:16 31° E 03:19:33 10° NNE
Okean 1-7 3.3 03:14:43 10° N 03:19:08 70° E 03:23:04 13° SSE
UNKNOWN OBJECT B 3.9 03:15:24 10° NNE 03:19:10 40° E 03:22:12 15° SSE
Cosmos 468 Rocket 4.4 03:14:54 10° NNW 03:19:44 43° WSW 03:22:20 24° SSW
Resurs 1-4 Rocket 2.4 03:15:00 10° N 03:20:13 57° WNW 03:23:17 24° SW
Cosmos 292 Rocket 3.7 03:18:48 10° NNW 03:23:38 86° WSW 03:28:28 10° SSE
Helios 1A Rocket 3.6 03:28:01 10° NNE 03:31:58 50° E 03:35:16 14° S
Cosmos 1606 4.2 03:31:11 10° NW 03:34:00 20° W 03:34:41 19° WSW
MOZ.5/SAFIR/RUBIN 5/SL-8 4.1 03:31:58 20° SSW 03:34:56 48° W 03:39:28 10° NNW
Cosmos 1934 Rocket 4.0 03:29:31 10° NNW 03:35:51 69° W 03:41:55 11° S
H-2A R/B 3.4 03:32:22 10° N 03:36:01 33° WNW 03:37:55 21° WSW
Cosmos 1184 Rocket 3.0 03:33:26 10° N 03:36:42 68° E 03:39:53 10° SSE
SAR-Lupe-2 3.7 03:33:26 10° SSE 03:36:59 74° ENE 03:40:34 10° N
Cosmos 1486 Rocket 4.0 03:33:22 20° SSW 03:37:06 85° WNW 03:42:28 10° NNE
CBERS 1 LM4 rocket 4.4 03:37:18 10° NNE 03:42:25 88° WNW 03:46:29 15° SSW
Cosmos 1825 4.3 03:42:06 12° W 03:43:19 13° WNW 03:45:15 10° NW
USA 229 DEB 4.3 03:39:22 10° NNW 03:46:33 66° NE 03:53:55 10° SE
USA 229 4.3 03:39:28 10° NNW 03:46:39 66° NE 03:54:00 10° SE
Cosmos 1437 Rocket 3.0 03:46:50 19° SSW 03:49:39 60° WNW 03:53:45 10° N
Cosmos 1782 4.5 03:49:00 10° NW 03:51:41 18° W 03:52:57 15° WSW
Cosmos 389 Rocket 3.9 03:49:30 10° SSE 03:52:50 37° E 03:56:13 10° NNE
Cosmos 2221 Rocket 3.7 03:54:39 10° NNW 03:59:00 57° W 04:03:21 10° S
Meteor 1-27 Rocket 4.0 03:56:16 10° NNW 04:01:51 51° W 04:07:31 10° SSW
Cosmos 1503 Rocket 4.0 03:57:55 12° SSW 04:02:48 86° ESE 04:07:59 10° NNE
SeaSat 1 4.3 03:58:48 10° ESE 04:03:15 35° NE 04:07:42 10° N
Cosmos 1727 Rocket 4.0 03:58:52 10° S 04:05:04 81° W 04:11:21 10° N
Milstar 3 Cent rocket 4.3 03:53:11 11° WSW 04:06:08 36° S 04:13:16 10° ESE
Cosmos 1812 2.8 04:03:59 10° N 04:07:52 81° E 04:11:44 10° S
Cosmos 1633 2.7 04:06:05 10° S 04:09:39 77° E 04:13:17 10° N
ARIANE 5 R/B 3.4 04:05:28 10° N 04:09:54 33° WNW 04:14:00 12° SW
Cosmos 1943 Rocket 4.3 04:07:32 10° WNW 04:10:10 13° NW 04:12:50 10° NNW
Delta 2 Rocket 4.3 04:08:34 13° WSW 04:12:24 39° S 04:17:14 10° ESE
Cosmos 968 Rocket 4.1 04:07:18 10° S 04:12:25 56° ESE 04:17:35 10° NNE
ATLAS 5 CENTAUR R/B 4.4 04:09:07 12° SW 04:14:32 72° NW 04:40:06 10° NE
Cosmos 2219 3.2 04:13:12 10° NNW 04:18:49 64° WSW 04:24:21 10° S
ADEOS 3.9 04:14:58 10° N 04:20:03 52° WNW 04:25:06 10° SW
CZ-2D R/B 3.9 04:17:12 10° NNW 04:20:40 18° WNW 04:24:08 10° WSW
COSMOS 2455 3.1 04:17:25 10° NW 04:23:12 49° WSW 04:28:57 10° S
Lacrosse 4 Rocket 3.0 04:19:36 10° WSW 04:23:16 25° NW 04:27:01 10° N
Cosmos 44 Rocket 3.8 04:20:57 10° SSW 04:25:41 59° ESE 04:30:36 10° NE
PSLV R/B 2.8 04:26:05 10° W 04:29:03 72° S 04:32:00 10° ESE
ATLAS 2A CENTAUR R/B 4.2 04:26:23 10° SW 04:31:00 15° S 04:34:13 10° SSE
SL-16 R/B 4.2 04:30:02 10° WSW 04:32:39 13° W 04:35:18 10° WNW
PSLV R/B 3.9 04:29:08 10° NNE 04:33:32 72° ESE 04:37:53 10° S
ADEOS II 2.5 04:30:43 10° N 04:35:47 50° WNW 04:40:51 10° SW
Cosmos 1980 Rocket 4.4 04:33:19 10° SSE 04:37:31 22° E 04:41:44 10° NE
Cosmos 2061 Rocket 4.2 04:31:37 10° N 04:37:52 79° E 04:44:08 10° S
Cosmos 1802 Rocket 4.2 04:31:45 10° N 04:38:04 81° E 04:44:16 10° S
SL-19 R/B 4.0 04:35:40 10° S 04:38:49 59° WSW 04:42:28 10° NNW
Cosmos 2016 Rocket 4.5 04:33:07 10° N 04:39:30 70° E 04:45:49 10° SSE
Genesis I 3.3 04:35:47 10° NW 04:39:54 82° WSW 04:43:56 10° SSE
Meteor 2-12 Rocket 4.5 04:36:22 10° N 04:42:31 76° W 04:48:35 10° S
BREEZE-M R/B 2.8 04:38:14 10° SW 04:43:47 64° SSE 04:46:52 10° ENE
